Regional Weather Roundup
Issued by NWS

Home | Current Version | Previous Version | Text Only | Print | Product List | Glossary Off
Versions: 1 2 3 4 5 6 7 8 9 10 11 12 13 14 15 16 17 18 19 20 21 22 23 24 25 26 27 28 29 30 31 32 33 34 35 36 37 38 39 40 41 42 43 44 45 46 47 48 49 50

000
ASUS43 KBIS 291210
RWRND

NORTH DAKOTA REGIONAL WEATHER ROUNDUP
NATIONAL WEATHER SERVICE BISMARCK ND
700 AM CDT FRI APR 29 2016

NOTE: "FAIR" INDICATES FEW OR NO CLOUDS BELOW 12,000 FEET WITH NO
SIGNIFICANT WEATHER AND/OR OBSTRUCTIONS TO VISIBILITY.


NDZ001>003-009>011-017-291300-
NORTHWEST NORTH DAKOTA

CITY           SKY/WX    TMP DP  RH WIND       PRES   REMARKS
WILLISTON      PTCLDY    34  24  67 NE5       30.18R
6HR MIN TEMP:  33; 6HR MAX TEMP:  43;

MINOT          PTCLDY    34  21  59 N5        30.20S
MINOT AFB      MOCLDY    29  23  78 NW5       30.20R
$$

NDZ018>021-031>035-040>046-291300-
SOUTHWEST NORTH DAKOTA

CITY           SKY/WX    TMP DP  RH WIND       PRES   REMARKS
BISMARCK       CLOUDY    35  31  85 NE7       30.18R
6HR MIN TEMP:  34; 6HR MAX TEMP:  44;

DICKINSON      CLOUDY    35  27  72 NE7       30.12S
GARRISON         N/A     31  23  72 N3        30.18S
6HR MIN TEMP:  30; 6HR MAX TEMP:  40;

HETTINGER ARPT CLOUDY    38  33  82 E5        30.13R
$$

NDZ004>008-012>016-024-026-027-054-291300-
NORTHEAST NORTH DAKOTA

CITY           SKY/WX    TMP DP  RH WIND       PRES   REMARKS
GRAND FORKS    MOCLDY    34  29  82 N6        30.21R
GRND FRKS AFB  PTCLDY    34  27  74 N9        30.21R
DEVILS LAKE    CLOUDY    35  26  69 N3        30.21R
$$

NDZ022-023-025-028>030-036>039-047>053-291300-
SOUTHEAST NORTH DAKOTA

CITY           SKY/WX    TMP DP  RH WIND       PRES   REMARKS
FARGO          CLOUDY    36  32  85 E5        30.16R
6HR MIN TEMP:  34; 6HR MAX TEMP:  42;

JAMESTOWN      CLOUDY    32  28  85 N5        30.16S
$$




USA.gov is the U.S. government's official web portal to all federal, state and local government web resources and services.